owner,sensor,date,latitude,longitude,vertical_datum,wind_speed,wind_to_direction,wind_speed_of_gust,qcFlag 
COMPS,ioos:station:USF.COMPS:SHP:1,2015-11-01T03:00:00Z,30.0600,-84.2910,10.0,4.66,148.52,5.48,'1111122,1111122,1111122' 
COMPS,ioos:station:USF.COMPS:SHP:1,2015-11-01T03:06:00Z,30.0600,-84.2910,10.0,4.95,148.38,5.68,'1111122,1111122,1111122' 
COMPS,ioos:station:USF.COMPS:SHP:1,2015-11-01T03:12:00Z,30.0600,-84.2910,10.0,5.16,148.94,5.78,'1111122,1111122,1111122' 
COMPS,ioos:station:USF.COMPS:SHP:1,2015-11-01T03:18:00Z,30.0600,-84.2910,10.0,5.35,148.37,6.07,'1111122,1111122,1111122' 
COMPS,ioos:station:USF.COMPS:SHP:1,2015-11-01T03:24:00Z,30.0600,-84.2910,10.0,5.65,146.61,6.27,'1111122,1111122,1111122' 
COMPS,ioos:station:USF.COMPS:SHP:1,2015-11-01T03:30:00Z,30.0600,-84.2910,10.0,6.02,144.61,6.56,'1111122,1111122,1111122' 
COMPS,ioos:station:USF.COMPS:SHP:1,2015-11-01T03:36:00Z,30.0600,-84.2910,10.0,6.22,141.8,6.95,'1111122,1111122,1111122' 
COMPS,ioos:station:USF.COMPS:SHP:1,2015-11-01T03:42:00Z,30.0600,-84.2910,10.0,6.02,142.53,6.76,'1111122,1111122,1111122' 
COMPS,ioos:station:USF.COMPS:SHP:1,2015-11-01T03:48:00Z,30.0600,-84.2910,10.0,6.08,139.74,7.05,'1111122,1111122,1111122' 
COMPS,ioos:station:USF.COMPS:SHP:1,2015-11-01T03:54:00Z,30.0600,-84.2910,10.0,5.96,137.16,7.15,'1111122,1111122,1111122' 
COMPS,ioos:station:USF.COMPS:SHP:1,2015-11-01T04:00:00Z,30.0600,-84.2910,10.0,5.59,137.6,6.76,'1111122,1111122,1111122' 
COMPS,ioos:station:USF.COMPS:SHP:1,2015-11-01T04:06:00Z,30.0600,-84.2910,10.0,5.89,139.95,7.15,'1111122,1111122,1111122' 
COMPS,ioos:station:USF.COMPS:SHP:1,2015-11-01T04:12:00Z,30.0600,-84.2910,10.0,5.32,144.22,6.27,'1111122,1111122,1111122' 
COMPS,ioos:station:USF.COMPS:SHP:1,2015-11-01T04:18:00Z,30.0600,-84.2910,10.0,4.86,150.23,5.48,'1111122,1111122,1111122' 
COMPS,ioos:station:USF.COMPS:SHP:1,2015-11-01T04:24:00Z,30.0600,-84.2910,10.0,4.9,152.43,5.78,'1111122,1111122,1111122' 
COMPS,ioos:station:USF.COMPS:SHP:1,2015-11-01T04:30:00Z,30.0600,-84.2910,10.0,4.91,148.74,5.87,'1111122,1111122,1111122' 
COMPS,ioos:station:USF.COMPS:SHP:1,2015-11-01T04:36:00Z,30.0600,-84.2910,10.0,4.77,153.85,5.68,'1111122,1111122,1111122' 
COMPS,ioos:station:USF.COMPS:SHP:1,2015-11-01T04:42:00Z,30.0600,-84.2910,10.0,4.86,152.6,5.58,'1111122,1111122,1111122' 
COMPS,ioos:station:USF.COMPS:SHP:1,2015-11-01T04:48:00Z,30.0600,-84.2910,10.0,4.73,149.53,5.39,'1111122,1111122,1111122' 
COMPS,ioos:station:USF.COMPS:SHP:1,2015-11-01T04:54:00Z,30.0600,-84.2910,10.0,5.36,148.02,6.37,'1111122,1111122,1111122' 
COMPS,ioos:station:USF.COMPS:SHP:1,2015-11-01T05:00:00Z,30.0600,-84.2910,10.0,5.47,146.08,6.37,'1111122,1111122,1111122' 
COMPS,ioos:station:USF.COMPS:SHP:1,2015-11-01T05:06:00Z,30.0600,-84.2910,10.0,5.68,146.17,6.37,'1111122,1111122,1111122' 
COMPS,ioos:station:USF.COMPS:SHP:1,2015-11-01T05:12:00Z,30.0600,-84.2910,10.0,5.33,143.13,6.17,'1111122,1111122,1111122' 
COMPS,ioos:station:USF.COMPS:SHP:1,2015-11-01T05:18:00Z,30.0600,-84.2910,10.0,5.75,147.78,6.85,'1111122,1111122,1111122' 
COMPS,ioos:station:USF.COMPS:SHP:1,2015-11-01T05:24:00Z,30.0600,-84.2910,10.0,6.04,144.28,6.95,'1111122,1111122,1111122' 
COMPS,ioos:station:USF.COMPS:SHP:1,2015-11-01T05:30:00Z,30.0600,-84.2910,10.0,6.1,144.32,6.76,'1111122,1111122,1111122' 
COMPS,ioos:station:USF.COMPS:SHP:1,2015-11-01T05:36:00Z,30.0600,-84.2910,10.0,5.48,150.2,6.17,'1111122,1111122,1111122' 
COMPS,ioos:station:USF.COMPS:SHP:1,2015-11-01T05:42:00Z,30.0600,-84.2910,10.0,4.91,155.33,5.68,'1111122,1111122,1111122' 
COMPS,ioos:station:USF.COMPS:SHP:1,2015-11-01T05:48:00Z,30.0600,-84.2910,10.0,4.72,156.1,5.87,'1111122,1111122,1111122' 
COMPS,ioos:station:USF.COMPS:SHP:1,2015-11-01T05:54:00Z,30.0600,-84.2910,10.0,5.43,154.99,6.37,'1111122,1111122,1111122' 
COMPS,ioos:station:USF.COMPS:SHP:1,2015-11-01T06:00:00Z,30.0600,-84.2910,10.0,5.69,151.09,6.56,'1111122,1111122,1111122' 
COMPS,ioos:station:USF.COMPS:SHP:1,2015-11-01T06:06:00Z,30.0600,-84.2910,10.0,5.27,148.77,5.97,'1111122,1111122,1111122' 
COMPS,ioos:station:USF.COMPS:SHP:1,2015-11-01T06:12:00Z,30.0600,-84.2910,10.0,5.22,147.09,5.97,'1111122,1111122,1111122' 
COMPS,ioos:station:USF.COMPS:SHP:1,2015-11-01T06:18:00Z,30.0600,-84.2910,10.0,5.49,145.48,6.07,'1111122,1111122,1111122' 
COMPS,ioos:station:USF.COMPS:SHP:1,2015-11-01T06:24:00Z,30.0600,-84.2910,10.0,5.49,140.9,6.17,'1111122,1111122,1111122' 
COMPS,ioos:station:USF.COMPS:SHP:1,2015-11-01T06:30:00Z,30.0600,-84.2910,10.0,5.1,137.75,6.07,'1111122,1111122,1111122' 
COMPS,ioos:station:USF.COMPS:SHP:1,2015-11-01T06:36:00Z,30.0600,-84.2910,10.0,4.75,129.3,5.68,'1111122,1111122,1111122' 
COMPS,ioos:station:USF.COMPS:SHP:1,2015-11-01T06:42:00Z,30.0600,-84.2910,10.0,4.64,129.08,6.07,'1111122,1111122,1111122' 
COMPS,ioos:station:USF.COMPS:SHP:1,2015-11-01T06:48:00Z,30.0600,-84.2910,10.0,4.79,125.18,6.37,'1111122,1111122,1111122' 
COMPS,ioos:station:USF.COMPS:SHP:1,2015-11-01T06:54:00Z,30.0600,-84.2910,10.0,4.29,124.55,6.46,'1111122,1111122,1111122' 
COMPS,ioos:station:USF.COMPS:SHP:1,2015-11-01T07:00:00Z,30.0600,-84.2910,10.0,5.09,126.36,7.35,'1111122,1111122,1111122' 
COMPS,ioos:station:USF.COMPS:SHP:1,2015-11-01T07:06:00Z,30.0600,-84.2910,10.0,5.93,127.59,7.74,'1111122,1111122,1111122' 
COMPS,ioos:station:USF.COMPS:SHP:1,2015-11-01T07:12:00Z,30.0600,-84.2910,10.0,6.6,129.35,7.44,'1111122,1111122,1111122' 
COMPS,ioos:station:USF.COMPS:SHP:1,2015-11-01T07:18:00Z,30.0600,-84.2910,10.0,6.99,132.43,8.33,'1111122,1111122,1111122' 
COMPS,ioos:station:USF.COMPS:SHP:1,2015-11-01T07:24:00Z,30.0600,-84.2910,10.0,6.89,134.81,8.42,'1111122,1111122,1111122' 
COMPS,ioos:station:USF.COMPS:SHP:1,2015-11-01T07:30:00Z,30.0600,-84.2910,10.0,7.51,137.04,9.21,'1111122,1111122,1111122' 
COMPS,ioos:station:USF.COMPS:SHP:1,2015-11-01T07:36:00Z,30.0600,-84.2910,10.0,8.07,137.18,9.5,'1111122,1111122,1111122' 
COMPS,ioos:station:USF.COMPS:SHP:1,2015-11-01T07:42:00Z,30.0600,-84.2910,10.0,7.58,139.19,8.91,'1111122,1111122,1111122' 
COMPS,ioos:station:USF.COMPS:SHP:1,2015-11-01T07:48:00Z,30.0600,-84.2910,10.0,7.76,138.07,9.4,'1111122,1111122,1111122' 
COMPS,ioos:station:USF.COMPS:SHP:1,2015-11-01T07:54:00Z,30.0600,-84.2910,10.0,7.46,138.47,9.01,'1111122,1111122,1111122' 
COMPS,ioos:station:USF.COMPS:SHP:1,2015-11-01T08:00:00Z,30.0600,-84.2910,10.0,7.53,138.28,9.21,'1111122,1111122,1111122' 
COMPS,ioos:station:USF.COMPS:SHP:1,2015-11-01T08:06:00Z,30.0600,-84.2910,10.0,7.31,137.83,9.01,'1111122,1111122,1111122' 
COMPS,ioos:station:USF.COMPS:SHP:1,2015-11-01T08:12:00Z,30.0600,-84.2910,10.0,7.36,140.47,8.13,'1111122,1111122,1111122' 
COMPS,ioos:station:USF.COMPS:SHP:1,2015-11-01T08:18:00Z,30.0600,-84.2910,10.0,7.4,141.89,9.21,'1111122,1111122,1111122' 
COMPS,ioos:station:USF.COMPS:SHP:1,2015-11-01T08:24:00Z,30.0600,-84.2910,10.0,7.55,142.47,8.52,'1111122,1111122,1111122' 
COMPS,ioos:station:USF.COMPS:SHP:1,2015-11-01T08:30:00Z,30.0600,-84.2910,10.0,7.51,139.6,8.52,'1111122,1111122,1111122' 
COMPS,ioos:station:USF.COMPS:SHP:1,2015-11-01T08:36:00Z,30.0600,-84.2910,10.0,7.43,140.96,8.52,'1111122,1111122,1111122' 
COMPS,ioos:station:USF.COMPS:SHP:1,2015-11-01T08:42:00Z,30.0600,-84.2910,10.0,7.39,144.37,8.91,'1111122,1111122,1111122' 
COMPS,ioos:station:USF.COMPS:SHP:1,2015-11-01T08:48:00Z,30.0600,-84.2910,10.0,7.89,142.7,9.11,'1111122,1111122,1111122' 
COMPS,ioos:station:USF.COMPS:SHP:1,2015-11-01T08:54:00Z,30.0600,-84.2910,10.0,7.88,143.19,9.21,'1111122,1111122,1111122' 
COMPS,ioos:station:USF.COMPS:SHP:1,2015-11-01T09:00:00Z,30.0600,-84.2910,10.0,7.84,143.96,9.01,'1111122,1111122,1111122' 
COMPS,ioos:station:USF.COMPS:SHP:1,2015-11-01T09:06:00Z,30.0600,-84.2910,10.0,7.81,145.04,8.72,'1111122,1111122,1111122' 
COMPS,ioos:station:USF.COMPS:SHP:1,2015-11-01T09:12:00Z,30.0600,-84.2910,10.0,7.57,143.68,8.62,'1111122,1111122,1111122' 
COMPS,ioos:station:USF.COMPS:SHP:1,2015-11-01T09:18:00Z,30.0600,-84.2910,10.0,7.9,143.52,8.82,'1111122,1111122,1111122' 
COMPS,ioos:station:USF.COMPS:SHP:1,2015-11-01T09:24:00Z,30.0600,-84.2910,10.0,7.84,143.93,8.91,'1111122,1111122,1111122' 
COMPS,ioos:station:USF.COMPS:SHP:1,2015-11-01T09:30:00Z,30.0600,-84.2910,10.0,7.78,146.51,9.6,'1111122,1111122,1111122' 
COMPS,ioos:station:USF.COMPS:SHP:1,2015-11-01T09:36:00Z,30.0600,-84.2910,10.0,7.82,146.45,8.82,'1111122,1111122,1111122' 
COMPS,ioos:station:USF.COMPS:SHP:1,2015-11-01T09:42:00Z,30.0600,-84.2910,10.0,8.08,149.07,9.01,'1111122,1111122,1111122' 
COMPS,ioos:station:USF.COMPS:SHP:1,2015-11-01T09:48:00Z,30.0600,-84.2910,10.0,7.73,149.77,8.91,'1111122,1111122,1111122' 
COMPS,ioos:station:USF.COMPS:SHP:1,2015-11-01T09:54:00Z,30.0600,-84.2910,10.0,8.1,148.8,8.91,'1111122,1111122,1111122' 
COMPS,ioos:station:USF.COMPS:SHP:1,2015-11-01T10:00:00Z,30.0600,-84.2910,10.0,8.36,147.58,9.3,'1111122,1111122,1111122' 
COMPS,ioos:station:USF.COMPS:SHP:1,2015-11-01T10:06:00Z,30.0600,-84.2910,10.0,8.04,146.6,9.01,'1111122,1111122,1111122' 
COMPS,ioos:station:USF.COMPS:SHP:1,2015-11-01T10:12:00Z,30.0600,-84.2910,10.0,8.14,146.98,9.3,'1111122,1111122,1111122' 
COMPS,ioos:station:USF.COMPS:SHP:1,2015-11-01T10:18:00Z,30.0600,-84.2910,10.0,8.16,149.24,9.11,'1111122,1111122,1111122' 
COMPS,ioos:station:USF.COMPS:SHP:1,2015-11-01T10:24:00Z,30.0600,-84.2910,10.0,8.63,146.55,9.3,'1111122,1111122,1111122' 
COMPS,ioos:station:USF.COMPS:SHP:1,2015-11-01T10:30:00Z,30.0600,-84.2910,10.0,8.45,149.48,9.89,'1111122,1111122,1111122' 
COMPS,ioos:station:USF.COMPS:SHP:1,2015-11-01T10:36:00Z,30.0600,-84.2910,10.0,8.23,145.21,9.7,'1111122,1111122,1111122' 
COMPS,ioos:station:USF.COMPS:SHP:1,2015-11-01T10:42:00Z,30.0600,-84.2910,10.0,7.99,145.61,9.5,'1111122,1111122,1111122' 
COMPS,ioos:station:USF.COMPS:SHP:1,2015-11-01T10:48:00Z,30.0600,-84.2910,10.0,8.39,149.71,9.5,'1111122,1111122,1111122' 
COMPS,ioos:station:USF.COMPS:SHP:1,2015-11-01T10:54:00Z,30.0600,-84.2910,10.0,8.89,152.3,9.89,'1111122,1111122,1111122' 
COMPS,ioos:station:USF.COMPS:SHP:1,2015-11-01T11:00:00Z,30.0600,-84.2910,10.0,8.46,149.96,9.8,'1111122,1111122,1111122' 
COMPS,ioos:station:USF.COMPS:SHP:1,2015-11-01T11:06:00Z,30.0600,-84.2910,10.0,8.6,154.82,10.19,'1111122,1111122,1111122' 
COMPS,ioos:station:USF.COMPS:SHP:1,2015-11-01T11:12:00Z,30.0600,-84.2910,10.0,8.62,155.65,9.6,'1111122,1111122,1111122' 
COMPS,ioos:station:USF.COMPS:SHP:1,2015-11-01T11:18:00Z,30.0600,-84.2910,10.0,8.62,157.14,10.38,'1111122,1111122,1111122' 
COMPS,ioos:station:USF.COMPS:SHP:1,2015-11-01T11:24:00Z,30.0600,-84.2910,10.0,8.52,154.71,9.7,'1111122,1111122,1111122' 
COMPS,ioos:station:USF.COMPS:SHP:1,2015-11-01T11:30:00Z,30.0600,-84.2910,10.0,8.63,154.85,9.99,'1111122,1111122,1111122' 
COMPS,ioos:station:USF.COMPS:SHP:1,2015-11-01T11:36:00Z,30.0600,-84.2910,10.0,8.83,156.81,9.99,'1111122,1111122,1111122' 
COMPS,ioos:station:USF.COMPS:SHP:1,2015-11-01T11:42:00Z,30.0600,-84.2910,10.0,8.99,155.51,10.19,'1111122,1111122,1111122' 
COMPS,ioos:station:USF.COMPS:SHP:1,2015-11-01T11:48:00Z,30.0600,-84.2910,10.0,7.72,158.28,8.91,'1111122,1111122,1111122' 
COMPS,ioos:station:USF.COMPS:SHP:1,2015-11-01T11:54:00Z,30.0600,-84.2910,10.0,7.61,156.91,9.4,'1111122,1111122,1111122' 
COMPS,ioos:station:USF.COMPS:SHP:1,2015-11-01T12:00:00Z,30.0600,-84.2910,10.0,8.43,158.37,9.89,'1111122,1111122,1111122' 
COMPS,ioos:station:USF.COMPS:SHP:1,2015-11-01T12:06:00Z,30.0600,-84.2910,10.0,7.43,159.38,8.82,'1111122,1111122,1111122' 
COMPS,ioos:station:USF.COMPS:SHP:1,2015-11-01T12:12:00Z,30.0600,-84.2910,10.0,7.39,161.37,9.21,'1111122,1111122,1111122' 
COMPS,ioos:station:USF.COMPS:SHP:1,2015-11-01T12:18:00Z,30.0600,-84.2910,10.0,7.31,158.74,8.23,'1111122,1111122,1111122' 
COMPS,ioos:station:USF.COMPS:SHP:1,2015-11-01T12:24:00Z,30.0600,-84.2910,10.0,7.28,156.47,8.42,'1111122,1111122,1111122' 
COMPS,ioos:station:USF.COMPS:SHP:1,2015-11-01T12:30:00Z,30.0600,-84.2910,10.0,7.32,155.43,8.33,'1111122,1111122,1111122' 
COMPS,ioos:station:USF.COMPS:SHP:1,2015-11-01T12:36:00Z,30.0600,-84.2910,10.0,6.93,155.86,7.93,'1111122,1111122,1111122' 
COMPS,ioos:station:USF.COMPS:SHP:1,2015-11-01T12:42:00Z,30.0600,-84.2910,10.0,6.88,157.69,8.23,'1111122,1111122,1111122' 
COMPS,ioos:station:USF.COMPS:SHP:1,2015-11-01T12:48:00Z,30.0600,-84.2910,10.0,6.79,158.64,7.93,'1111122,1111122,1111122' 
COMPS,ioos:station:USF.COMPS:SHP:1,2015-11-01T12:54:00Z,30.0600,-84.2910,10.0,6.51,159.2,7.54,'1111122,1111122,1111122' 
COMPS,ioos:station:USF.COMPS:SHP:1,2015-11-01T13:00:00Z,30.0600,-84.2910,10.0,6.16,157.56,7.15,'1111122,1111122,1111122' 
COMPS,ioos:station:USF.COMPS:SHP:1,2015-11-01T13:06:00Z,30.0600,-84.2910,10.0,5.9,156.52,7.15,'1111122,1111122,1111122' 
COMPS,ioos:station:USF.COMPS:SHP:1,2015-11-01T13:12:00Z,30.0600,-84.2910,10.0,5.55,158.31,6.85,'1111122,1111122,1111122' 
COMPS,ioos:station:USF.COMPS:SHP:1,2015-11-01T13:18:00Z,30.0600,-84.2910,10.0,5.95,156.78,6.95,'1111122,1111122,1111122' 
COMPS,ioos:station:USF.COMPS:SHP:1,2015-11-01T13:24:00Z,30.0600,-84.2910,10.0,5.85,155.41,6.76,'1111122,1111122,1111122' 
COMPS,ioos:station:USF.COMPS:SHP:1,2015-11-01T13:30:00Z,30.0600,-84.2910,10.0,6.26,156.68,7.54,'1111122,1111122,1111122' 
COMPS,ioos:station:USF.COMPS:SHP:1,2015-11-01T13:36:00Z,30.0600,-84.2910,10.0,6.22,155.46,7.44,'1111122,1111122,1111122' 
COMPS,ioos:station:USF.COMPS:SHP:1,2015-11-01T13:42:00Z,30.0600,-84.2910,10.0,6.41,152.9,7.64,'1111122,1111122,1111122' 
COMPS,ioos:station:USF.COMPS:SHP:1,2015-11-01T13:48:00Z,30.0600,-84.2910,10.0,6.27,153.3,6.85,'1111122,1111122,1111122' 
COMPS,ioos:station:USF.COMPS:SHP:1,2015-11-01T13:54:00Z,30.0600,-84.2910,10.0,6.12,154.53,7.44,'1111122,1111122,1111122' 
COMPS,ioos:station:USF.COMPS:SHP:1,2015-11-01T14:00:00Z,30.0600,-84.2910,10.0,6.19,154.28,6.95,'1111122,1111122,1111122' 
COMPS,ioos:station:USF.COMPS:SHP:1,2015-11-01T14:06:00Z,30.0600,-84.2910,10.0,6.26,152.55,7.05,'1111122,1111122,1111122' 
COMPS,ioos:station:USF.COMPS:SHP:1,2015-11-01T14:12:00Z,30.0600,-84.2910,10.0,6.01,152.1,6.66,'1111122,1111122,1111122' 
COMPS,ioos:station:USF.COMPS:SHP:1,2015-11-01T14:18:00Z,30.0600,-84.2910,10.0,6.1,154.12,6.95,'1111122,1111122,1111122' 
COMPS,ioos:station:USF.COMPS:SHP:1,2015-11-01T14:24:00Z,30.0600,-84.2910,10.0,5.98,153.23,6.85,'1111122,1111122,1111122' 
COMPS,ioos:station:USF.COMPS:SHP:1,2015-11-01T14:30:00Z,30.0600,-84.2910,10.0,5.93,156.06,7.05,'1111122,1111122,1111122' 
COMPS,ioos:station:USF.COMPS:SHP:1,2015-11-01T14:36:00Z,30.0600,-84.2910,10.0,6.05,159.39,7.35,'1111122,1111122,1111122' 
COMPS,ioos:station:USF.COMPS:SHP:1,2015-11-01T14:42:00Z,30.0600,-84.2910,10.0,6.09,158.05,7.15,'1111122,1111122,1111122' 
COMPS,ioos:station:USF.COMPS:SHP:1,2015-11-01T14:48:00Z,30.0600,-84.2910,10.0,6.02,157.47,6.95,'1111122,1111122,1111122' 
COMPS,ioos:station:USF.COMPS:SHP:1,2015-11-01T14:54:00Z,30.0600,-84.2910,10.0,5.68,159.32,6.66,'1111122,1111122,1111122' 
COMPS,ioos:station:USF.COMPS:SHP:1,2015-11-01T15:00:00Z,30.0600,-84.2910,10.0,5.73,160.61,6.66,'1111122,1111122,1111122' 
COMPS,ioos:station:USF.COMPS:SHP:1,2015-11-01T15:06:00Z,30.0600,-84.2910,10.0,5.28,161.2,6.07,'1111122,1111122,1111122' 
COMPS,ioos:station:USF.COMPS:SHP:1,2015-11-01T15:12:00Z,30.0600,-84.2910,10.0,5.39,161.66,6.17,'1111122,1111122,1111122' 
COMPS,ioos:station:USF.COMPS:SHP:1,2015-11-01T15:18:00Z,30.0600,-84.2910,10.0,5.74,162.34,6.56,'1111122,1111122,1111122' 
COMPS,ioos:station:USF.COMPS:SHP:1,2015-11-01T15:24:00Z,30.0600,-84.2910,10.0,5.89,161.58,6.95,'1111122,1111122,1111122' 
COMPS,ioos:station:USF.COMPS:SHP:1,2015-11-01T15:30:00Z,30.0600,-84.2910,10.0,5.58,163.55,6.56,'1111122,1111122,1111122' 
COMPS,ioos:station:USF.COMPS:SHP:1,2015-11-01T15:36:00Z,30.0600,-84.2910,10.0,6.14,160.47,6.95,'1111122,1111122,1111122' 
COMPS,ioos:station:USF.COMPS:SHP:1,2015-11-01T15:42:00Z,30.0600,-84.2910,10.0,6.13,162.43,7.83,'1111122,1111122,1111122' 
COMPS,ioos:station:USF.COMPS:SHP:1,2015-11-01T15:48:00Z,30.0600,-84.2910,10.0,6.17,163.16,7.83,'1111122,1111122,1111122' 
COMPS,ioos:station:USF.COMPS:SHP:1,2015-11-01T15:54:00Z,30.0600,-84.2910,10.0,5.8,164.77,6.56,'1111122,1111122,1111122' 
COMPS,ioos:station:USF.COMPS:SHP:1,2015-11-01T16:00:00Z,30.0600,-84.2910,10.0,5.51,166.23,6.27,'1111122,1111122,1111122' 
COMPS,ioos:station:USF.COMPS:SHP:1,2015-11-01T16:06:00Z,30.0600,-84.2910,10.0,5.24,166.12,6.07,'1111122,1111122,1111122' 
COMPS,ioos:station:USF.COMPS:SHP:1,2015-11-01T16:12:00Z,30.0600,-84.2910,10.0,5.39,165.89,6.17,'1111122,1111122,1111122' 
COMPS,ioos:station:USF.COMPS:SHP:1,2015-11-01T16:18:00Z,30.0600,-84.2910,10.0,5.1,165.45,5.97,'1111122,1111122,1111122' 
COMPS,ioos:station:USF.COMPS:SHP:1,2015-11-01T16:24:00Z,30.0600,-84.2910,10.0,5.09,161.81,5.97,'1111122,1111122,1111122' 
COMPS,ioos:station:USF.COMPS:SHP:1,2015-11-01T16:30:00Z,30.0600,-84.2910,10.0,5.22,160.0,5.97,'1111122,1111122,1111122' 
COMPS,ioos:station:USF.COMPS:SHP:1,2015-11-01T16:36:00Z,30.0600,-84.2910,10.0,4.95,159.12,5.87,'1111122,1111122,1111122' 
COMPS,ioos:station:USF.COMPS:SHP:1,2015-11-01T16:42:00Z,30.0600,-84.2910,10.0,5.31,157.63,6.37,'1111122,1111122,1111122' 
COMPS,ioos:station:USF.COMPS:SHP:1,2015-11-01T16:48:00Z,30.0600,-84.2910,10.0,5.07,155.92,5.78,'1111122,1111122,1111122' 
COMPS,ioos:station:USF.COMPS:SHP:1,2015-11-01T16:54:00Z,30.0600,-84.2910,10.0,5.35,153.19,6.46,'1111122,1111122,1111122' 
COMPS,ioos:station:USF.COMPS:SHP:1,2015-11-01T17:00:00Z,30.0600,-84.2910,10.0,5.16,154.85,5.87,'1111122,1111122,1111122' 
COMPS,ioos:station:USF.COMPS:SHP:1,2015-11-01T17:06:00Z,30.0600,-84.2910,10.0,5.2,150.36,5.78,'1111122,1111122,1111122' 
COMPS,ioos:station:USF.COMPS:SHP:1,2015-11-01T17:12:00Z,30.0600,-84.2910,10.0,5.16,148.43,5.87,'1111122,1111122,1111122' 
COMPS,ioos:station:USF.COMPS:SHP:1,2015-11-01T17:18:00Z,30.0600,-84.2910,10.0,5.0,148.77,5.58,'1111122,1111122,1111122' 
COMPS,ioos:station:USF.COMPS:SHP:1,2015-11-01T17:24:00Z,30.0600,-84.2910,10.0,5.1,149.68,5.87,'1111122,1111122,1111122' 
COMPS,ioos:station:USF.COMPS:SHP:1,2015-11-01T17:30:00Z,30.0600,-84.2910,10.0,5.23,151.33,6.07,'1111122,1111122,1111122' 
COMPS,ioos:station:USF.COMPS:SHP:1,2015-11-01T17:36:00Z,30.0600,-84.2910,10.0,4.97,148.96,5.97,'1111122,1111122,1111122' 
COMPS,ioos:station:USF.COMPS:SHP:1,2015-11-01T17:42:00Z,30.0600,-84.2910,10.0,5.07,151.78,6.07,'1111122,1111122,1111122' 
COMPS,ioos:station:USF.COMPS:SHP:1,2015-11-01T17:48:00Z,30.0600,-84.2910,10.0,5.08,155.66,5.58,'1111122,1111122,1111122' 
COMPS,ioos:station:USF.COMPS:SHP:1,2015-11-01T17:54:00Z,30.0600,-84.2910,10.0,4.99,156.57,5.78,'1111122,1111122,1111122' 
COMPS,ioos:station:USF.COMPS:SHP:1,2015-11-01T18:00:00Z,30.0600,-84.2910,10.0,5.11,154.48,5.68,'1111122,1111122,1111122' 
COMPS,ioos:station:USF.COMPS:SHP:1,2015-11-01T18:06:00Z,30.0600,-84.2910,10.0,4.82,154.17,5.39,'1111122,1111122,1111122' 
COMPS,ioos:station:USF.COMPS:SHP:1,2015-11-01T18:12:00Z,30.0600,-84.2910,10.0,4.94,150.94,5.68,'1111122,1111122,1111122' 
COMPS,ioos:station:USF.COMPS:SHP:1,2015-11-01T18:18:00Z,30.0600,-84.2910,10.0,4.48,154.59,5.09,'1111122,1111122,1111122' 
COMPS,ioos:station:USF.COMPS:SHP:1,2015-11-01T18:24:00Z,30.0600,-84.2910,10.0,4.62,151.41,5.19,'1111122,1111122,1111122' 
COMPS,ioos:station:USF.COMPS:SHP:1,2015-11-01T18:30:00Z,30.0600,-84.2910,10.0,4.58,151.2,5.68,'1111122,1111122,1111122' 
COMPS,ioos:station:USF.COMPS:SHP:1,2015-11-01T18:36:00Z,30.0600,-84.2910,10.0,4.38,151.45,4.99,'1111122,1111122,1111122' 
COMPS,ioos:station:USF.COMPS:SHP:1,2015-11-01T18:42:00Z,30.0600,-84.2910,10.0,4.41,150.25,4.9,'1111122,1111122,1111122' 
COMPS,ioos:station:USF.COMPS:SHP:1,2015-11-01T18:48:00Z,30.0600,-84.2910,10.0,4.2,149.76,4.8,'1111122,1111122,1111122' 
COMPS,ioos:station:USF.COMPS:SHP:1,2015-11-01T18:54:00Z,30.0600,-84.2910,10.0,3.96,147.0,4.5,'1111122,1111122,1111122' 
COMPS,ioos:station:USF.COMPS:SHP:1,2015-11-01T19:00:00Z,30.0600,-84.2910,10.0,3.92,147.08,4.6,'1111122,1111122,1111122' 
COMPS,ioos:station:USF.COMPS:SHP:1,2015-11-01T19:06:00Z,30.0600,-84.2910,10.0,3.98,144.57,4.5,'1111122,1111122,1111122' 
COMPS,ioos:station:USF.COMPS:SHP:1,2015-11-01T19:12:00Z,30.0600,-84.2910,10.0,4.04,144.62,4.6,'1111122,1111122,1111122' 
COMPS,ioos:station:USF.COMPS:SHP:1,2015-11-01T19:18:00Z,30.0600,-84.2910,10.0,4.49,145.16,5.19,'1111122,1111122,1111122' 
COMPS,ioos:station:USF.COMPS:SHP:1,2015-11-01T19:24:00Z,30.0600,-84.2910,10.0,4.74,144.08,5.58,'1111122,1111122,1111122' 
COMPS,ioos:station:USF.COMPS:SHP:1,2015-11-01T19:30:00Z,30.0600,-84.2910,10.0,4.39,146.69,5.09,'1111122,1111122,1111122' 
COMPS,ioos:station:USF.COMPS:SHP:1,2015-11-01T19:36:00Z,30.0600,-84.2910,10.0,4.13,145.92,4.7,'1111122,1111122,1111122' 
COMPS,ioos:station:USF.COMPS:SHP:1,2015-11-01T19:42:00Z,30.0600,-84.2910,10.0,4.33,147.71,5.09,'1111122,1111122,1111122' 
COMPS,ioos:station:USF.COMPS:SHP:1,2015-11-01T19:48:00Z,30.0600,-84.2910,10.0,4.35,145.84,4.9,'1111122,1111122,1111122' 
COMPS,ioos:station:USF.COMPS:SHP:1,2015-11-01T19:54:00Z,30.0600,-84.2910,10.0,4.33,143.9,4.7,'1111122,1111122,1111122' 
COMPS,ioos:station:USF.COMPS:SHP:1,2015-11-01T20:00:00Z,30.0600,-84.2910,10.0,4.14,141.96,4.8,'1111122,1111122,1111122' 
COMPS,ioos:station:USF.COMPS:SHP:1,2015-11-01T20:06:00Z,30.0600,-84.2910,10.0,4.21,141.18,4.99,'1111122,1111122,1111122' 
COMPS,ioos:station:USF.COMPS:SHP:1,2015-11-01T20:12:00Z,30.0600,-84.2910,10.0,4.14,140.85,4.9,'1111122,1111122,1111122' 
COMPS,ioos:station:USF.COMPS:SHP:1,2015-11-01T20:18:00Z,30.0600,-84.2910,10.0,4.03,141.88,4.8,'1111122,1111122,1111122' 
COMPS,ioos:station:USF.COMPS:SHP:1,2015-11-01T20:24:00Z,30.0600,-84.2910,10.0,4.54,145.89,5.19,'1111122,1111122,1111122' 
COMPS,ioos:station:USF.COMPS:SHP:1,2015-11-01T20:30:00Z,30.0600,-84.2910,10.0,4.66,147.93,5.19,'1111122,1111122,1111122' 
COMPS,ioos:station:USF.COMPS:SHP:1,2015-11-01T20:36:00Z,30.0600,-84.2910,10.0,4.1,150.85,4.6,'1111122,1111122,1111122' 
COMPS,ioos:station:USF.COMPS:SHP:1,2015-11-01T20:42:00Z,30.0600,-84.2910,10.0,3.94,145.96,4.41,'1111122,1111122,1111122' 
COMPS,ioos:station:USF.COMPS:SHP:1,2015-11-01T20:48:00Z,30.0600,-84.2910,10.0,3.9,145.92,4.41,'1111122,1111122,1111122' 
COMPS,ioos:station:USF.COMPS:SHP:1,2015-11-01T20:54:00Z,30.0600,-84.2910,10.0,3.83,142.9,4.21,'1111122,1111122,1111122' 
COMPS,ioos:station:USF.COMPS:SHP:1,2015-11-01T21:00:00Z,30.0600,-84.2910,10.0,3.68,144.88,4.01,'1111122,1111122,1111122' 
COMPS,ioos:station:USF.COMPS:SHP:1,2015-11-01T21:06:00Z,30.0600,-84.2910,10.0,3.24,145.05,3.82,'1111122,1111122,1111122' 
COMPS,ioos:station:USF.COMPS:SHP:1,2015-11-01T21:12:00Z,30.0600,-84.2910,10.0,3.59,141.12,4.01,'1111122,1111122,1111122' 
COMPS,ioos:station:USF.COMPS:SHP:1,2015-11-01T21:18:00Z,30.0600,-84.2910,10.0,3.51,143.74,4.01,'1111122,1111122,1111122' 
COMPS,ioos:station:USF.COMPS:SHP:1,2015-11-01T21:24:00Z,30.0600,-84.2910,10.0,3.81,144.96,4.41,'1111122,1111122,1111122' 
COMPS,ioos:station:USF.COMPS:SHP:1,2015-11-01T21:30:00Z,30.0600,-84.2910,10.0,4.18,144.44,4.8,'1111122,1111122,1111122' 
COMPS,ioos:station:USF.COMPS:SHP:1,2015-11-01T21:36:00Z,30.0600,-84.2910,10.0,4.1,139.65,4.8,'1111122,1111122,1111122' 
COMPS,ioos:station:USF.COMPS:SHP:1,2015-11-01T21:42:00Z,30.0600,-84.2910,10.0,4.46,149.56,4.8,'1111122,1111122,1111122' 
COMPS,ioos:station:USF.COMPS:SHP:1,2015-11-01T21:48:00Z,30.0600,-84.2910,10.0,4.3,150.14,4.99,'1111122,1111122,1111122' 
COMPS,ioos:station:USF.COMPS:SHP:1,2015-11-01T21:54:00Z,30.0600,-84.2910,10.0,3.83,152.25,4.5,'1111122,1111122,1111122' 
COMPS,ioos:station:USF.COMPS:SHP:1,2015-11-01T22:00:00Z,30.0600,-84.2910,10.0,3.76,155.14,4.31,'1111122,1111122,1111122' 
COMPS,ioos:station:USF.COMPS:SHP:1,2015-11-01T22:06:00Z,30.0600,-84.2910,10.0,3.9,155.01,4.41,'1111122,1111122,1111122' 
COMPS,ioos:station:USF.COMPS:SHP:1,2015-11-01T22:12:00Z,30.0600,-84.2910,10.0,4.09,153.42,4.8,'1111122,1111122,1111122' 
COMPS,ioos:station:USF.COMPS:SHP:1,2015-11-01T22:18:00Z,30.0600,-84.2910,10.0,4.65,154.1,5.09,'1111122,1111122,1111122' 
COMPS,ioos:station:USF.COMPS:SHP:1,2015-11-01T22:24:00Z,30.0600,-84.2910,10.0,4.55,154.69,5.09,'1111122,1111122,1111122' 
COMPS,ioos:station:USF.COMPS:SHP:1,2015-11-01T22:30:00Z,30.0600,-84.2910,10.0,4.58,153.86,5.09,'1111122,1111122,1111122' 